Location: Birkenwerder
(52.6919°N, 13.2774°E)
Time: 00:18:12
(UTC+00:00)

Cosmos 1570 Rocket - Pass Details

Date: 08 October 2020
Orbit: 763 x 788 km, 74.1° (Epoch: 24 October)

Event Time Altitude Azimuth Distance (km) Brightness Sun altitude
Exits shadow 00:00:59 15° 51° (NE) 2,048 6.7 -41.3°
Drops below altitude 10° 00:02:01 10° 44° (NE) 2,362 7.1 -41.3°
Sets 00:04:42 0° 33° (NNE) 3,296 8.1 -41.1°
